Hauptseite
METAR-TAF:

METAR-TAF

Flughäfen :

Flughafen Le Luc-Le Cannet

Le Luc, Frankreich

Breite: 43-23N, Länge: 006-23E, Höhe: 80 m

Beobachtung

Neuester Wetterbericht von vor 28 Minuten, um 03:00 UTC
Wind 10 kt aus Ost
Temperatur 20°C
Luftfeuchtigkeit 60%
Luftdruck 1015 hPa
Sichtweite 10 km oder mehr

METAR: LFMC 160300Z AUTO 10010KT 9999 ///TCU 20/12 Q1015

Zeit: 05:28 (03:28 UTC)


TAF: fehlend

Wetterbeobachtungen und Prognosen von mehr als 4000 Flughäfen (METAR und TAF Bericht).

Die verfügbaren Stationen werden durch gelbe und rote Markierungen auf der Karte dargestellt.

Führen Sie die Maus auf sie, um den Namen der Station zu sehen.

Darauf klicken, um die Beobachtung von Wetterbeobachtungen und Prognosen zu sehen.

Um die Karte zu ändern : klicken Sie auf den grünen Tasten mit einem schwarzen Kreuz Zum Vergrößern, auf den grünen Button mit einem Gedankenstrich zu verkleinern, oder auf die grünen Pfeile für benachbarte Karten.


METAR-TAF: